Regional Weather Roundup
Issued by NWS Cleveland, OH

Home | Current Version | Previous Version | Graphics & Text | Print | Product List | Glossary On
Versions: 1 2 3 4 5 6 7 8 9 10 11 12 13 14 15 16 17 18 19 20 21 22 23 24 25 26 27 28 29 30 31 32 33 34 35 36 37 38 39 40 41 42 43 44 45 46 47 48 49 50
000
ASUS41 KCLE 280712
RWRCLE
OHIO REGIONAL WEATHER ROUNDUP
NATIONAL WEATHER SERVICE WILMINGTON, OH
300 AM EDT TUE MAR 28 2017

NOTE: "FAIR" INDICATES FEW OR NO CLOUDS BELOW 12,000 FEET WITH NO
SIGNIFICANT WEATHER AND/OR OBSTRUCTIONS TO VISIBILITY.

OHZ001>008-015>018-024>027-034-035-043-044-280800-
   NORTHWEST OHIO

CITY           SKY/WX    TMP DP  RH WIND       PRES   REMARKS
DEFIANCE       CLOUDY    51  47  86 N10       29.87S
FINDLAY        CLOUDY    55  48  77 E5        29.85R
TOLEDO EXPRESS CLOUDY    51  49  92 N10       29.87S
TOLEDO EXEC    CLOUDY    50  48  93 NE8       29.87F
LIMA           LGT RAIN  53  52  96 N5        29.86S FOG
$$

OHZ009>014-019>023-028>033-038-089-280800-
   NORTHEAST OHIO

CITY           SKY/WX    TMP DP  RH WIND       PRES   REMARKS
CLE-HOPKINS    CLOUDY    54  46  74 CALM      29.88F
CLE-LAKEFRONT  MOCLDY    54  47  77 E3        29.86S
CUY CO. ARPT   NOT AVBL
LORAIN-ELYRIA  CLOUDY    50  45  83 CALM      29.87R
ASHTABULA      CLOUDY    49  47  93 CALM      29.87F
AKRON-CANTON   CLOUDY    53  49  86 NE10      29.85F
WOOSTER        CLOUDY    52  50  93 E7        29.85F
MANSFIELD      RAIN      52  51  97 N5        29.85F FOG
YOUNGSTOWN     LGT RAIN  51  48  89 NE7       29.87F FOG
$$

OHZ042-051>053-060>062-070>072-077>081-280800-
  SOUTHWEST OHIO

CITY           SKY/WX    TMP DP  RH WIND       PRES   REMARKS
CINC-COVINGTON CLOUDY    56  54  93 S6        29.83S
CINC-LUNKEN    CLOUDY    57  56  96 CALM      29.84S
HAMILTON       CLOUDY    57  57 100 CALM      29.84S
DAYTON         LGT RAIN  56  55  97 CALM      29.84S FOG
WRIGHT-PAT AFB CLOUDY    57  57 100 CALM      29.84R FOG
DAYTON GENERAL CLOUDY    57  55  93 CALM      29.83R
WILMINGTON     LGT RAIN  55  55 100 S6        29.83S
$$

OHZ036-037-039>041-045>050-054>059-063>069-073>076-082>088-280800-
  CENTRAL AND SOUTHEAST OHIO

CITY           SKY/WX    TMP DP  RH WIND       PRES   REMARKS
COLUMBUS       LGT RAIN  57  56  96 W5        29.82F
OSU AIRPORT    RAIN      56  56 100 NW3       29.82F FOG
BOLTON FIELD   DRIZZLE   56  55  99 CALM      29.84R
RICKENBACK AFB RAIN      56  56 100 SW7       29.83S
NEWARK         LGT RAIN  58  55  90 SW3       29.82F
MARION         RAIN      54  52  93 NE8       29.84F FOG
LANCASTER      RAIN      59  56  89 W3        29.84S FOG
ZANESVILLE     LGT RAIN  58  53  84 S7        29.83F
NEW PHILLY     MOCLDY    54  51  90 CALM      29.85F
$$




USA.gov is the U.S. government's official web portal to all federal, state and local government web resources and services.